map of HLP home
Great Circle Mapper logo
HLP - Airport
Location
City:  Jakarta, Jawa Barat, Indonesia
Name:Halim Perdanakusuma International Airport
ICAO / IATA:WIHH / HLP

Details
Type:Airport (Aerodrome, Airfield)
Use:Public/Civil, Military, International (customs port of entry)
Latitude:6°16'00"S (-6.266607)
Longitude:106°53'28"E (106.891117)
Datum:WGS 1984
Elevation:84 ft (26 m)
Variation:0.69°E (WMM2015 magnetic declination)
-0.02° annual change
Runways:1
Longest:9843 × 148 ft (3000 × 45 m), paved

Time
Time Zone:UTC+7
Local Time:

Weather
METAR:WIHH 011100Z 33005KT 5000 HZ FEW018 29/23 Q1013 NOSIG
TAF:WIHH 010500Z 0106/0206 08010KT 6000 SCT018
BECMG 0111/0113 04005KT 4000 HZ FEW020
BECMG 0200/0202 18007KT 6000 SCT018

Related Locations
Nearby:
Farthest:RON: 12450 mi / 20037 km
Paipa [Juan José Rondón Airport], BOY, CO

Find:

   beyond  
but within

Other Information
Maps:
NOTAMs:
Links:
Sources:

  
flag of Indonesia
flag of Jawa Barat
  

Sectional Chart

Flight Planning
at skyvector.com

Satellite Image

Google Maps Satellite view

 

Copyright © 2004-2015 Karl L. Swartz. All rights reserved.
The Great Circle Mapper name and logo are trademarks of the Great Circle Mapper.
All other trademarks mentioned herein belong to their respective owners.
Please see credits for attibutions and further copyright information.

  Follow gcmap on Facebook Follow gcmap on Twitter Follow gcmap on Google+

hCard Microformat

Geo Microformat